WB2COY Weather Reports


time (UTC)temp
C
wind
direction
speed
KPH
gust
KPH
rain 1hr
cm
rain 24hr
cm
rain mn
cm
humidity
%
barometer
mb
20260510003017 11 0.0 4.8 0.00 0.99 0.99 77 1010.3
20260510000037 11 0.0 3.2 0.00 0.99 0.99 75 1009.7
20260509233017 12 0.0 1.6 0.00 0.99 0.99 75 1009.7
20260509230016 12 0.0 3.2 0.00 0.99 0.99 76 1009.7
20260509223017 12 0.0 3.2 0.00 0.99 0.99 77 1009.5
20260509220038 12 0.0 4.8 0.00 0.99 0.99 77 1009.9
20260509213037 12 0.0 3.2 0.05 0.99 0.99 77 1010.1
20260509210017 12 0.0 1.6 0.15 0.99 0.99 77 1010.0
20260509203016 12 0.0 6.4 0.23 0.94 0.94 73 1010.7
20260509200017 12 0.0 4.8 0.25 0.84 0.84 72 1010.9
20260509193016 12 0.0 4.8 0.20 0.71 0.71 73 1011.4
20260509190016 13 0.0 3.2 0.15 0.58 0.58 73 1011.8
20260509183016 13 0.0 1.6 0.13 0.51 0.51 71 1011.6
20260509180017 13 0.0 1.6 0.10 0.43 0.43 71 1011.4
20260509173021 13 0.0 1.6 0.08 0.38 0.38 71 1011.2
20260509170036 12 0.0 1.6 0.08 0.33 0.33 71 1011.5
20260509163016 12 0.0 1.6 0.10 0.30 0.30 71 1011.7
20260509160016 12 0.0 3.2 0.05 0.25 0.25 71 1012.3
20260509153017 11 0.0 1.6 0.00 0.20 0.20 70 1012.6
20260509150016 11 0.0 1.6 0.00 0.20 0.20 70 1012.3
20260509143015 10 0.0 1.6 0.03 0.20 0.20 73 1012.6
20260509140015 10 0.0 1.6 0.03 0.20 0.20 77 1012.7
20260509133037 8 0.0 1.6 0.00 0.18 0.18 76 1012.8
20260509130017 8 0.0 1.6 0.00 0.18 0.18 76 1012.6
20260509123015 7 0.0 1.6 0.03 0.18 0.18 75 1012.9
20260509120035 7 0.0 1.6 0.03 0.18 0.18 74 1013.0
20260509113015 7 0.0 1.6 0.00 0.15 0.15 74 1013.2
20260509110015 7 0.0 1.6 0.00 0.15 0.15 73 1013.0
20260509103015 6 0.0 1.6 0.03 0.15 0.15 73 1013.0
20260509100016 6 0.0 1.6 0.05 0.15 0.15 71 1013.1
20260509093015 6 0.0 1.6 0.03 0.13 0.13 71 1013.2
20260509090016 6 0.0 1.6 0.03 0.10 0.10 70 1013.5
20260509083036 7 0.0 3.2 0.05 0.10 0.10 69 1013.4
20260509080015 7 0.0 1.6 0.08 0.08 0.08 68 1013.0
20260509073037 7 0.0 0.0 0.05 0.05 0.05 67 1012.9
20260509070017 7 0.0 0.0 0.00 0.00 0.00 61 1012.8
20260509063017 8 0.0 0.0 0.00 0.00 0.00 60 1013.0
20260509060038 7 0.0 1.6 0.00 0.00 0.00 59 1013.0
20260509053016 7 0.0 0.0 0.00 0.00 0.00 60 1013.3
20260509050016 8 0.0 0.0 0.00 0.00 0.00 56 1013.3
20260509043016 8 0.0 0.0 0.00 0.00 0.00 59 1013.4
20260509040038 8 0.0 0.0 0.00 0.00 0.00 53 1013.3
20260509033035 7 0.0 1.6 0.00 0.00 0.00 57 1013.1
20260509030017 7 0.0 0.0 0.00 0.00 0.00 57 1013.1
20260509023017 8 0.0 0.0 0.00 0.00 0.00 54 1013.1
20260509020016 8 0.0 1.6 0.00 0.00 0.00 55 1012.8
20260509013019 8 0.0 0.0 0.00 0.00 0.00 51 1012.5
20260509010038 10 0.0 0.0 0.00 0.00 0.00 48 1012.0